This is the latest recevied weather packets stored in our database for station/object KN1OBI-13. If no packets are shown the sender has not sent any weather packets the latest 10 day(s).
| Time | Temp. | Humidity | Pressure | Rain* | Wind** | Luminosity | Snow |
|---|---|---|---|---|---|---|---|
| 1788623793 | 21.11° C | 73% | 990 hPa | 0 mm | - | - | - |
| 1788623193 | 21.11° C | 73% | 990.2 hPa | 0 mm | - | - | - |
| 1788622593 | 20.56° C | 72% | 990.3 hPa | 0 mm | - | - | - |
| 1788621993 | 20.56° C | 72% | 990.1 hPa | 0 mm | - | - | - |
| 1788621393 | 20.56° C | 73% | 990.1 hPa | 0 mm | - | - | - |
| 1788620793 | 20.56° C | 72% | 990 hPa | 0 mm | - | - | - |
| 1788620193 | 20.56° C | 73% | 989.8 hPa | 0 mm | - | - | - |
| 1788619593 | 20.56° C | 72% | 990 hPa | 0 mm | - | - | - |
| 1788618996 | 20.56° C | 72% | 989.7 hPa | 0 mm | - | - | - |
| 1788618393 | 21.11° C | 72% | 989.8 hPa | 0 mm | - | - | - |
| 1788617793 | 20.56° C | 71% | 989.8 hPa | 0 mm | - | - | - |
| 1788617193 | 21.11° C | 71% | 990 hPa | 0 mm | - | - | - |
| 1788616593 | 21.11° C | 71% | 989.7 hPa | 0 mm | - | - | - |
| 1788615993 | 20.56° C | 74% | 989.8 hPa | 0 mm | - | - | - |
| 1788615393 | 20.56° C | 75% | 989.8 hPa | 0 mm | - | - | - |
| 1788614793 | 20° C | 76% | 989.9 hPa | 0 mm | - | - | - |
| 1788614193 | 20° C | 76% | 990 hPa | 0 mm | - | - | - |
| 1788613593 | 19.44° C | 77% | 989.8 hPa | 0 mm | - | - | - |
| 1788612993 | 19.44° C | 78% | 989.7 hPa | 0 mm | - | - | - |
| 1788612393 | 19.44° C | 78% | 989.6 hPa | 0 mm | - | - | - |
| 1788611793 | 18.89° C | 79% | 989.9 hPa | 0 mm | - | - | - |
| 1788611193 | 18.89° C | 80% | 989.6 hPa | 0 mm | - | - | - |
| 1788610593 | 18.33° C | 80% | 989.4 hPa | 0 mm | - | - | - |
| 1788609993 | 18.33° C | 81% | 989.4 hPa | 0 mm | - | - | - |
| 1788609393 | 17.78° C | 82% | 989.6 hPa | 0 mm | - | - | - |
* Rain latest hour (hover to see other rain measurements)
** Current wind speed in m/s (hover to see current wind gust speed)